This demonstration page uses our WeatherBlox Daily Observations layout. Learn more.

Left ArrowRight Arrow

41.86663, -103.66717

Hourly Observations for October 28, 2015

Temp ( °F °C ) Dew Point ( °F °C ) Humidity (%) Winds ( mph kmh ) Pressure ( in mb ) Visibility ( mi km ) Precip ( " mm )
12:53 am 00:53 Cloudy 42 5.6 37 2.8 82 82 NW 9 15 29.99 1016 10 16 N/A
1:53 am 01:53 Cloudy 41 5 36 2.2 82 82 NW 6 9 29.99 1016 10 16 N/A
2:53 am 02:53 Mostly Cloudy 39 3.9 36 2.2 89 89 NW 8 13 29.98 1015 10 16 N/A
3:53 am 03:53 Partly Cloudy 37 2.8 35 1.7 93 93 WNW 5 7 29.99 1016 10 16 N/A
4:53 am 04:53 Clear 35 1.7 33 0.6 93 93 WNW 5 7 29.98 1015 10 16 N/A
5:53 am 05:53 Clear 34 1.1 32 undefined 92 92 NNW 5 7 29.98 1015 10 16 N/A
6:53 am 06:53 Clear 32 undefined 30 -1.1 92 92 NNW 7 11 29.98 1015 10 16 N/A
7:53 am 07:53 Sunny 34 1.1 32 undefined 92 92 WNW 8 13 29.95 1014 10 16 N/A
8:53 am 08:53 Sunny 39 3.9 34 1.1 82 82 WNW 10 17 29.96 1015 10 16 N/A
9:53 am 09:53 Sunny 44 6.7 34 1.1 68 68 NW 15 24 29.95 1014 10 16 N/A
10:53 am 10:53 Sunny 50 10 33 0.6 52 52 WNW 16 26 29.91 1013 10 16 N/A
11:53 am 11:53 Mostly Sunny 54 12.2 33 0.6 45 45 WNW 18 30 29.87 1012 10 16 N/A
12:53 pm 12:53 Partly Cloudy 55 12.8 31 -0.6 40 40 NW 23 37 29.84 1011 10 16 N/A
1:53 pm 13:53 Mostly Sunny 56 13.3 29 -1.7 36 36 WNW 21 33 29.80 1009 10 16 N/A
2:53 pm 14:53 Sunny 57 13.9 29 -1.7 34 34 NNW 25 41 29.78 1009 10 16 N/A
3:53 pm 15:53 Sunny 57 13.9 28 -2.2 33 33 NW 21 33 29.78 1009 10 16 N/A
4:53 pm 16:53 Sunny 55 12.8 30 -1.1 38 38 NNW 15 24 29.79 1009 10 16 N/A
5:53 pm 17:53 Sunny 49 9.4 30 -1.1 48 48 N 13 20 29.82 1010 10 16 N/A
6:53 pm 18:53 Clear 45 7.2 30 -1.1 56 56 NNW 12 19 29.86 1011 10 16 N/A
7:53 pm 19:53 Clear 43 6.1 30 -1.1 60 60 N 12 19 29.89 1012 10 16 N/A
8:53 pm 20:53 Clear 39 3.9 29 -1.7 67 67 undefined N/A 29.91 1013 10 16 N/A
9:53 pm 21:53 Clear 39 3.9 27 -2.8 62 62 VRB 3 6 29.93 1013 10 16 N/A
10:53 pm 22:53 Clear 35 1.7 26 -3.3 70 70 WNW 6 9 29.94 1014 10 16 N/A
11:53 pm 23:53 Clear 35 1.7 25 -3.9 67 67 N N/A 29.93 1014 10 16 N/A

Powered by AerisWeather